www.pogodaiklimat.ru

Погода и климат >> Архив погоды >> Монголия >> Матад


ПОГОДА в Матаде

  • Прогноз погоды в Матаде
  • Монитор погоды в Матаде

АРХИВ ПОГОДЫ в Матаде

Время (UTC), дата Ветер
(напр.,м/с)
 
Видим.   Явления Облачность Т
(С)
Тd
(С)
f
(%)
Тe
(С)
Тes
(С)
Комфортность P
(гПа)
Po
(гПа)
Тmin
(С)
Tmax
(С)
R
(мм)
R24
(мм)
S
(см)
00 9.06 С 5 20 км 4/0
[Ci]
+16.9 +11.0 68 +16 +20 1010.9 908.5 +8.7
03 9.06 С 5 20 км 9/8 1000 м
[Cu med, cong Ci fib]
+20.9 +8.8 46 +22 +24 комфорт 1009.2 908.2
06 9.06 С 4 20 км 8/8 1000 м
[Cu med, cong]
+23.2 +7.7 37 +24 +26 комфорт 1007.0 907.0
09 9.06 СЗ 6 20 км 8/8 1000 м
[Cu med, cong]
+23.9 +7.1 34 +24 +25 комфорт 1005.7 906.1
12 9.06 СЗ 4 20 км 6/3 1000 м
[Cu med, cong Ac cuf]
+19.4 +11.7 61 +21 +21 комфорт 1007.8 906.5 +24.7
15 9.06 С 4 20 км 4/0
[Ci]
+13.9 +10.3 79 +12 +12 1010.6 907.1
18 9.06 С 3 20 км 3/0
[Ac lent]
+11.7 +9.1 84 +10 +10 1011.6 907.4
21 9.06 С 2 20 км 3/0
[Ac lent]
+10.7 +8.6 87 +9 +9 1011.7 907.1
00 10.06 штиль 0 20 км ясно +21.7 +8.2 42 +23 +32 комфорт 1007.9 907.4 +9.4
03 10.06 Ю 1 20 км 4/4 1000 м
[Cu med, cong]
+24.5 +6.7 32 +25 +37 комфорт 1006.4 906.9
06 10.06 ЮЗ 2 20 км 8/6 1000 м
[Cu med, cong Ac cuf]
+26.6 +4.4 24 +26 +30 жарко 1004.2 905.6
09 10.06 СЗ 2 20 км 9/4 1000 м
[Cu med, cong Cs]
+27.0 +3.5 22 +26 +28 жарко 1002.6 904.3
12 10.06 З 1 20 км 8/3 1000 м
[Sc diur, vesp Ci]
+23.3 +11.0 46 +26 +26 жарко 1003.7 904.0 +28.0
15 10.06 З 1 20 км 6/0
[Cs]
+17.1 +10.2 64 +18 +18 1006.4 904.5
18 10.06 З 4 20 км 3/0
[Ci]
+18.1 +7.8 51 +18 +18 1005.4 903.9
21 10.06 ЮЗ 3 20 км 8/0
[Cs]
+17.6 +7.9 53 +18 +18 1005.6 904.0
00 11.06 З 5 20 км 8/0
[Ac trans Ci]
+23.0 +7.1 36 +24 +27 комфорт 1003.5 903.8 +16.7
03 11.06 С 1 20 км 8/4 1000 м
[Cu hum Cs]
+28.8 +8.5 28 +28 +39 жарко 1000.3 902.7
06 11.06 С 7 20 км 9/8 600 м
[Cb calv Ci]
+30.3 +4.8 20 +28 +29 жарко 999.0 902.0
09 11.06 З 3
{13}
20 км 10/6 600 м
[Cb calv Ac cast]
+28.9 +6.3 24 +28 +28 жарко 998.8 901.4
12 11.06 СЗ 9 20 км 10/10 1000 м
[Sc]
+23.0 +9.0 41 +24 +24 комфорт 1002.6 903.0 +31.7
15 11.06 СЗ 1 20 км 8/0
[Ac trans]
+19.1 +11.2 60 +21 +21 комфорт 1003.8 902.8
18 11.06 С 1 20 км 3/0
[Ac lent]
+17.4 +9.0 58 +18 +18 1005.2 903.5
21 11.06 С 5 20 км 9/0
[Ac As]
+14.0 +9.6 75 +12 +12 1007.1 904.1
00 12.06 С 10 20 км 6/0
[Ac lent Ci]
+20.1 +11.0 56 +21 +21 комфорт 1006.6 905.7 +13.8
03 12.06 С 9 20 км 8/5 1000 м
[Cu med, cong Ac cast]
+22.4 +8.1 40 +24 +24 комфорт 1006.1 905.9
06 12.06 С 8 20 км 8/1 1000 м
[Cu hum Ac lent Ci]
+23.9 +6.7 33 +24 +26 комфорт 1005.4 905.8
09 12.06 С 8 20 км 9/0
[Ac cast Cs]
+23.5 +4.0 28 +23 +24 комфорт 1004.6 904.9
12 12.06 СЗ 4 20 км 10/10 1000 м
[Sc]
+19.8 +5.4 39 +20 +20 1006.7 905.7 +24.7
15 12.06 С 3 20 км 6/0
[Ac trans]
+14.3 +6.2 58 +14 +14 1009.2 906.1
18 12.06 С 4 20 км 3/0
[Ci]
+10.3 +4.6 68 +8 +8 1011.6 906.8
21 12.06 С 6 20 км 4/0
[Ac lent]
+9.5 +3.5 66 +6 +6 1012.8 907.6
00 13.06 С 9 20 км 5/0
[Ac lent Ci]
+16.0 +1.7 38 +14 +15 1010.4 907.7 +9.2
03 13.06 С 10 20 км 1/1 1000 м
[Cu hum]
+19.0 +1.0 30 +18 +19 1008.6 907.1
06 13.06 С 9
{16}
20 км 4/3 1000 м
[Cu hum Ci fib]
+20.9 +0.7 26 +21 +22 комфорт 1007.1 906.3
09 13.06 С 10
{17}
20 км 1/1 1000 м
[Cu hum]
+21.0 -1.3 22 +20 +20 1006.8 906.1
12 13.06 С 6 20 км ясно +17.6 -2.1 26 +17 +17 1009.3 907.3 +22.1
15 13.06 С 2 20 км ясно +9.2 +0.1 53 +8 +8 1013.9 908.5
18 13.06 С 4 20 км ясно +7.0 +1.9 70 +4 +4 1015.2 908.9
21 13.06 С 4 20 км ясно +6.8 +2.9 76 +3 +3 1015.7 909.3
00 14.06 С 6 20 км 4/1 1000 м
[Cu hum Ci]
+15.4 +3.8 46 +14 +16 1013.3 910.1 +6.0
03 14.06 С 7 20 км 3/1 1000 м
[Cu hum Ci]
+18.9 +3.9 37 +19 +23 1011.6 909.8
06 14.06 С 6 20 км 3/0
[Ci]
+22.0 +2.2 27 +22 +28 комфорт 1009.5 908.9
09 14.06 СВ 4 20 км ясно +22.7 +0.5 23 +22 +26 комфорт 1008.1 907.8
12 14.06 СВ 3 20 км 8/0
[Cs]
+19.5 +1.5 30 +20 +20 1009.8 908.3 +23.1
15 14.06 штиль 0 20 км 3/0
[Ci]
+13.7 +0.7 41 +14 +14 1013.1 909.4
18 14.06 штиль 0 20 км ясно +11.2 +1.7 52 +11 +11 1014.0 909.3
21 14.06 С 1 20 км 6/0
[Cs]
+8.8 +2.8 66 +8 +9 1015.2 909.5
00 15.06 Ю 3 20 км 8/0
[Cs]
+18.5 +5.0 41 +19 +24 1011.4 909.5 +7.3
03 15.06 В 5 20 км 8/0
[Cs]
+22.7 +3.9 29 +23 +30 комфорт 1009.0 908.7
06 15.06 В 6 20 км 9/0
[Cs]
+23.3 +1.0 23 +22 +28 комфорт 1007.3 907.3
09 15.06 ЮВ 4 20 км 8/0
[Ac lent Ci]
+24.0 +1.6 23 +23 +25 комфорт 1005.4 905.8
12 15.06 ЮВ 4 20 км 8/0
[Ac As Ci fib]
+21.3 +2.6 29 +21 +21 комфорт 1006.6 906.0 +25.0
15 15.06 ЮВ 5 20 км 9/0
[As trans]
+16.7 -0.1 32 +16 +16 1009.1 906.8
18 15.06 Ю 5 20 км 10/0
[As op]
+14.7 +3.2 46 +13 +13 1009.8 906.7
21 15.06 Ю 2 20 км 6/0
[Ac trans]
+11.8 +3.8 58 +11 +11 1010.7 906.5

 

Местоположение метеостанции Матад (Монголия): широта 47.17 долгота 115.63 высота над уровнем моря 907 м.

В архиве по умолчанию представлена погода в Матаде за последнюю неделю. Архивные данные за месяц целиком и за предыдущие месяцы, начиная с января 2011 года, Вы можете получить, выбрав интересующий диапазон дат из раскрывающегося списка и нажав кнопку "Ввод!".


*Определитесь, кто Вы:
робот инопланетянин человек

Внимание! Время в таблицах - всемирное. Для получения местного времени необходимо прибавить поправку, которая равна 8 ч.

Смотрите также архив погоды в соседних городах и на ближайших метеорологических станциях:

Погода в Чойбалсане (Монголия) (130 км)
Погода в Эрдэнэцагаане (Монголия) (143 км)
Погода в Баруун-Урте (Монголия) (187 км)
Погода в Шинэ-Барга-Юци (Внутренняя Монголия, Китай) (189 км)
Погода в Дун-Уджимчин-Ци (Внутренняя Монголия, Китай) (210 км)
Погода в Халхин-Голе (Монголия) (230 км)
Погода в Баян-Ову (Монголия) (273 км)
Погода в Дашбалбаре (Монголия) (280 км)
Погода в Баяндэлгэре (Монголия) (297 км)
Погода в Забайкальске (Забайкальский край, Россия) (300 км)

Пояснения к столбцам:

Ветер - указаны скорость ветра в м/с - средняя за 10 мин, порывы в срок и между сроками (в фигурных скобках) и направление, откуда дует ветер: С - северный, СВ - северо-восточный, В - восточный, ЮВ - юго-восточный, Ю - южный, ЮЗ - юго-западный, З - западный, СЗ - северо-западный.
Видимость - горизонтальная дальность видимости в метрах или километрах. При видимости от 1 до 10 км при отсутствии осадков обычно наблюдается дымка, при ухудшении видимости до 1 км и менее - туман. В сухую погоду видимость может ухудшаться дымом, пылью или мглою.
Явления - указаны атмосферные явления, наблюдавшиеся в срок или в последний час перед сроком; фигурными скобками обозначены явления, наблюдавшиеся между сроками (за 1-3 часа до срока); квадратными скобками обозначены град или гололедные отложения с указанием их диаметра в мм.
Облачность - указаны через наклонную черту общая и нижняя облачность в баллах и высота нижней границы облаков в метрах; квадратными скобками обозначены формы облаков: Ci - перистые, Cs - перисто-слоистые, Cc - перисто-кучевые, Ac - высококучевые, As - высокослоистые, Sc - слоисто-кучевые, Ns - слоисто-дождевые, Cu - кучевые, Cb - кучево-дождевые. Подробнее классификацию облаков см. в Атласе облаков (PDF).
T - Температура воздуха - температура, измеренная на высоте 2 м над землей.
Td - Температура точки росы - температура, при понижении до которой содержащийся в воздухе водяной пар достигнет насыщения.
f - Относительная влажность воздуха - влажноcть воздуха, измеренная на высоте 2 м над землей.
Te - Эффективная температура - температура, которую ощущает одетый по сезону человек в тени. Характеристика душности погоды. При расчете учитывается влияние влажности воздуха и скорости ветра на теплоощущения человека.
Tes - Эффективная температура на солнце - температура, которую ощущает человек, с поправкой на солнечный нагрев. Характеристика знойности погоды. Зависит от высоты солнца над горизонтом, облачности и скорости ветра. Ночью, в пасмурную погоду, а также при ветре 12 м/с и более поправка равна нулю.
P - Атмосферное давление - приведенное к уровню моря атмосферное давление.
Po - Атмосферное давление - измеренное на уровне метеостанции атмосферное давление.
Tmin - Минимальная температура - минимум температуры воздуха на высоте 2 м над землей.
Tmax - Максимальная температура - максимум температуры воздуха на высоте 2 м над землей.
R - Количество осадков - Количество выпавших осадков за период времени, мм. При наведении курсора мыши на число - период времени, за который выпало указанное количество осадков.
R24 - Количество осадков - Количество выпавших осадков за 24 часа, мм.
S - Снежный покров - Высота снежного покрова, см. При наведении курсора мыши на число - состояние снежного покрова и степень покрытия местности в баллах.